Theta_e
313 311 323 316 314 313 319 320 322 325 325 345 345 348 351 351 353 355 349 352 349 347 349 340 334 327 323 327 328 325 326 328 331 333 334 335 336 335 333 328 327 330 332 333 331 330 328 324 322
312 321 324 311 308 308 308 317 320 322 324 337 347 347 352 354 354 349 353 353 352 345 346 340 335 328 324 328 329 326 325 330 333 333 334 334 333 331 327 328 331 332 332 332 328 325 322 321 321
316 322 321 320 310 308 306 311 315 316 319 320 345 348 352 357 354 347 348 353 353 347 346 341 336 332 325 328 329 328 325 330 332 332 332 331 332 327 330 332 331 333 333 329 324 322 321 321 321
316 316 315 318 319 311 308 313 312 312 313 313 336 345 351 350 354 348 348 352 352 352 347 341 337 336 326 328 329 330 329 329 330 331 332 334 330 329 332 333 334 333 331 326 323 321 321 321 322
316 313 320 318 319 313 312 313 313 313 313 313 315 316 351 349 351 350 352 351 348 350 347 342 338 338 327 328 330 330 330 331 333 334 336 335 330 332 334 335 335 332 326 323 322 321 321 321 323
314 312 318 319 316 315 314 313 313 313 313 314 316 325 351 346 349 350 352 350 350 353 353 344 340 339 329 329 329 330 330 331 335 337 335 333 331 333 335 335 331 327 324 322 322 321 322 324 327
312 312 316 317 317 318 317 315 315 314 314 316 315 344 349 346 345 347 350 349 349 352 353 352 343 340 333 329 330 329 329 331 332 336 333 331 334 335 335 331 327 325 324 322 322 323 326 331 336
308 309 314 315 317 316 317 314 314 315 317 316 317 320 333 344 346 347 348 348 348 352 352 352 347 342 335 329 332 329 329 331 334 336 331 331 335 334 330 327 324 324 323 322 324 328 334 338 344
309 310 310 312 314 313 311 313 315 315 316 316 316 317 319 331 347 347 350 351 351 352 353 353 349 344 339 330 333 330 328 329 332 335 330 334 334 331 328 325 324 323 323 325 330 335 338 344 347
309 308 310 310 312 312 312 312 313 315 316 316 316 317 333 343 345 349 350 350 350 351 352 352 350 346 341 331 337 333 330 329 330 331 331 333 331 327 326 324 323 323 324 326 335 339 342 345 343
309 310 310 311 310 310 312 313 313 314 314 314 315 316 333 346 345 349 349 349 349 349 349 350 350 347 344 340 338 336 331 328 329 328 329 331 328 325 324 324 329 330 328 327 335 340 342 346 342
313 311 311 309 310 310 311 311 312 312 312 313 314 315 323 348 343 346 348 348 346 348 348 348 348 348 346 343 340 337 331 328 328 328 328 328 326 324 326 332 336 336 334 334 336 340 349 347 343
311 313 311 310 309 311 311 313 313 313 312 312 313 315 320 331 331 339 347 347 346 348 348 347 348 348 346 343 341 338 332 329 327 327 326 326 324 329 334 337 338 338 338 340 343 345 348 345 333
309 309 309 308 308 309 313 314 312 313 312 312 314 315 316 326 331 343 346 345 345 347 349 348 348 348 346 342 341 338 334 331 328 327 326 324 332 336 338 339 338 339 342 349 346 349 346 337 328
308 308 309 308 309 312 313 313 314 312 311 312 313 315 316 335 342 345 348 345 344 344 348 348 349 346 345 341 338 339 336 333 330 328 325 323 332 339 342 340 339 343 349 349 347 342 335 329 324
309 307 308 307 310 309 312 313 313 312 311 312 312 313 316 324 348 348 348 346 345 342 343 346 346 345 344 342 338 338 337 334 329 328 326 327 335 339 342 340 337 345 348 345 341 332 328 327 322
308 309 308 310 309 309 311 310 309 310 310 312 312 312 313 315 324 343 345 339 344 343 340 341 342 342 343 341 339 338 337 333 328 329 330 330 336 343 341 340 341 346 344 338 335 331 328 327 325
316 315 315 314 313 309 309 309 310 309 310 310 310 312 312 315 318 339 340 342 341 343 340 339 338 339 339 338 337 337 336 331 328 330 336 335 338 344 342 340 343 346 340 336 334 333 329 326 325
316 316 316 315 317 317 317 313 310 310 309 309 309 311 312 312 315 335 344 343 344 343 341 340 338 338 337 337 336 336 335 333 335 335 341 341 341 343 341 341 343 340 341 339 333 330 327 324 323
318 319 320 319 318 313 315 316 314 313 312 311 311 310 311 312 329 344 346 341 343 342 341 340 339 338 335 335 335 335 336 336 337 340 341 343 343 342 340 341 343 341 340 335 332 329 326 323 320
320 321 321 321 319 316 317 317 316 314 313 312 311 311 312 313 325 345 347 344 345 340 341 341 342 341 338 335 336 339 339 341 340 340 342 345 341 341 341 342 342 338 337 333 330 329 325 323 319
323 320 320 321 321 322 317 321 316 315 313 312 311 312 313 314 320 344 345 345 345 341 342 345 344 347 345 346 345 345 344 343 343 342 342 341 340 343 342 339 337 336 335 333 329 323 321 321 321
322 321 322 322 323 323 322 324 319 314 314 313 312 312 313 313 322 344 344 343 345 340 343 344 343 344 342 341 337 336 346 345 344 343 341 342 343 342 339 338 336 334 332 327 321 320 319 317 316
320 322 322 323 321 325 321 320 319 316 314 313 312 313 313 311 318 338 341 338 346 342 341 341 338 336 338 337 333 335 346 345 344 342 342 342 341 338 337 335 335 331 325 321 320 317 315 314 314
319 323 327 324 326 323 318 320 317 314 313 313 313 312 310 310 317 331 337 337 342 342 339 337 338 337 336 339 335 334 344 343 342 342 342 338 335 334 333 333 329 325 322 320 317 315 315 315 314
322 323 325 327 328 325 319 320 316 323 317 320 312 313 312 309 321 330 337 337 337 340 337 331 331 331 333 337 332 333 342 342 342 340 339 338 337 334 331 329 326 323 320 316 314 314 314 312 313
325 325 321 322 324 325 318 318 317 324 326 326 329 318 314 310 333 333 338 336 334 336 333 329 329 329 330 332 332 336 345 343 342 340 341 337 333 331 328 325 321 318 315 314 313 312 311 311 311
323 321 328 323 328 331 328 327 329 328 327 327 329 327 327 312 330 332 333 336 333 334 331 330 329 328 330 331 341 345 343 341 339 339 336 332 329 326 323 321 318 315 313 312 311 311 311 311 310
324 325 327 323 325 330 332 333 326 328 327 328 328 326 325 319 317 331 333 331 333 336 332 334 333 332 339 341 344 341 337 337 338 333 330 328 323 323 320 317 315 313 311 311 311 310 310 309 309
322 325 326 330 330 324 330 331 323 325 327 328 327 326 327 322 310 335 331 332 334 339 339 344 346 346 344 342 339 335 334 334 331 328 327 325 323 318 316 314 312 311 310 310 309 309 309 308 306
Wind_Speed
14 7 2 3 3 4 4 8 3 3 5 1 3 3 6 3 5 4 2 38 40 34 35 33 28 25 24 24 25 27 29 30 31 30 28 26 24 22 20 18 17 16 15 14 11 9 7 6 6
12 3 3 2 4 3 6 5 9 5 4 2 4 2 2 5 3 2 6 27 41 50 46 36 31 27 26 25 25 26 28 30 31 29 27 25 22 21 20 19 17 14 13 12 9 7 6 5 5
6 2 3 4 4 8 6 5 8 2 5 6 2 3 4 5 3 5 17 29 30 52 50 43 36 30 28 28 26 25 27 29 29 28 25 23 21 21 19 17 16 13 10 8 8 7 5 4 5
1 4 3 2 13 6 6 1 2 5 6 5 3 7 5 9 4 9 16 32 33 43 47 45 39 33 31 29 27 27 27 27 26 26 25 22 21 20 18 16 13 12 9 7 5 5 3 3 5
2 3 1 4 8 4 4 3 5 5 4 5 6 7 7 4 10 8 21 33 45 47 48 47 43 37 33 31 28 28 27 27 25 24 23 22 21 19 17 15 12 10 9 6 4 2 2 4 5
3 3 1 9 12 2 4 4 3 2 2 5 4 7 6 4 12 15 21 23 25 30 33 49 43 38 35 33 31 28 27 28 26 24 22 21 20 18 15 13 11 9 8 5 2 0 2 5 6
5 3 5 4 4 2 2 2 1 3 4 3 7 7 5 3 10 20 20 21 23 25 35 33 44 41 36 33 31 30 28 28 27 25 22 21 18 16 13 11 10 9 6 4 1 2 4 5 7
4 3 3 4 3 5 0 9 5 4 3 9 5 5 7 6 17 24 24 25 27 27 29 38 42 41 38 35 32 30 29 27 26 25 23 21 17 14 12 11 9 7 5 3 0 3 3 6 9
3 2 3 4 3 5 7 6 7 7 7 6 6 6 14 26 28 30 27 24 27 28 31 32 41 43 41 37 34 31 29 27 26 24 23 21 18 15 13 11 8 6 4 2 1 1 3 6 8
3 3 6 6 5 7 12 9 10 11 20 11 8 16 25 25 30 23 23 25 31 32 33 36 38 42 43 40 35 32 30 29 27 26 24 22 18 15 13 11 8 6 4 4 2 1 3 5 4
1 5 5 8 11 10 15 14 11 16 19 8 9 15 7 4 6 19 24 33 38 32 31 35 38 43 39 38 40 35 33 31 30 28 25 22 19 17 15 12 10 7 5 5 4 3 5 2 1
5 8 6 6 6 7 10 6 9 13 15 12 14 8 7 8 7 8 15 27 32 33 31 32 35 37 38 33 41 39 36 34 32 30 27 24 21 18 15 12 8 6 5 6 6 6 8 5 4
6 3 7 8 9 7 10 13 14 18 10 12 13 12 9 9 12 21 18 17 26 34 33 34 34 35 36 37 39 40 37 36 34 32 28 26 23 19 15 11 9 6 8 9 8 5 6 6 4
4 10 12 8 10 6 10 12 4 8 10 11 11 10 8 11 17 15 8 14 20 26 32 35 36 37 37 38 40 41 38 35 34 32 29 27 24 18 14 10 8 5 5 5 9 10 7 6 3
6 9 11 9 6 6 7 12 10 8 7 11 11 9 6 10 14 13 9 6 17 25 26 36 40 42 45 40 42 41 38 35 32 31 28 27 23 17 13 12 9 9 10 11 12 10 7 3 1
5 3 4 6 7 7 4 10 10 4 6 10 12 11 7 5 11 15 15 17 21 22 24 27 33 44 45 44 42 40 39 35 32 30 28 26 22 16 14 15 12 15 14 13 11 8 5 1 2
2 6 7 7 1 6 5 9 7 6 8 9 10 9 8 5 7 17 27 25 32 28 25 25 27 35 45 41 39 38 37 34 33 30 28 26 22 18 14 14 13 18 15 12 8 4 1 3 4
8 9 11 13 3 7 17 20 17 6 7 10 10 9 6 9 9 16 31 47 49 34 25 25 23 22 34 39 35 34 33 34 32 31 28 27 24 19 19 15 14 15 13 9 5 3 4 4 7
14 14 20 19 11 14 22 20 19 11 8 8 11 9 7 10 7 18 23 30 35 35 31 25 26 25 31 34 31 29 29 31 30 30 27 26 24 20 19 16 17 15 10 6 4 4 5 6 7
14 17 21 20 13 10 13 21 19 16 18 12 12 14 11 7 7 8 17 26 27 32 33 26 25 21 23 29 27 22 25 26 29 29 28 25 24 21 18 17 17 13 9 6 4 3 3 6 9
9 13 18 19 18 12 16 23 17 18 17 16 13 15 11 9 10 8 12 15 20 23 32 28 25 18 18 16 25 22 26 23 24 26 26 26 25 22 19 19 17 13 8 6 5 4 4 6 8
15 11 19 19 11 10 7 11 18 15 17 10 13 11 12 9 11 13 13 13 22 26 28 27 31 23 14 10 10 21 20 16 17 25 25 28 25 22 20 18 14 11 10 7 4 6 6 6 5
12 10 14 17 16 12 18 8 13 11 15 19 15 16 14 10 14 16 19 23 29 36 37 34 27 27 12 9 4 16 19 19 22 23 27 24 23 23 21 16 15 13 10 9 9 10 9 8 8
11 8 11 12 2 5 14 10 18 13 19 14 8 10 11 10 13 18 22 29 31 39 32 36 31 25 18 9 13 14 14 26 26 25 25 23 23 21 20 18 16 14 12 12 11 11 11 12 12
4 7 5 3 2 5 1 8 11 15 8 12 10 8 9 10 12 14 16 16 23 32 42 36 37 35 31 24 17 16 22 31 35 35 31 29 26 24 21 18 17 16 14 12 12 13 13 13 12
5 1 3 5 4 8 4 5 5 12 5 5 3 5 5 9 9 14 20 19 26 30 34 30 29 24 27 35 38 31 30 33 32 28 33 29 27 25 22 20 18 17 16 15 15 15 14 13 15
1 4 2 4 4 4 4 6 5 22 21 18 11 6 6 7 10 12 16 15 23 28 31 33 29 26 23 28 27 37 32 32 31 31 32 30 29 27 24 22 21 19 17 14 15 16 15 15 15
5 0 3 2 4 4 4 3 9 22 20 17 14 8 8 7 10 7 13 16 23 28 29 30 28 35 37 43 30 33 33 32 35 34 32 32 29 27 25 23 21 19 17 16 15 15 13 14 13
5 4 4 2 3 2 4 2 8 15 16 17 15 11 7 8 9 10 11 14 22 26 30 30 29 31 27 28 30 33 35 39 38 36 35 33 30 27 25 23 20 19 18 15 15 17 13 14 16
6 10 9 3 4 3 2 3 7 16 15 12 15 14 9 9 9 12 11 14 18 24 27 28 29 28 33 34 34 37 40 41 40 39 36 32 31 28 26 23 20 18 16 16 16 16 15 17 18
Wind_Direction
334 330 330 45 63 63 248 246 216 198 344 351 155 157 202 189 208 215 198 170 164 171 175 171 173 170 163 156 155 152 149 146 147 147 147 147 148 146 144 144 142 139 135 131 127 124 120 113 97
334 46 77 86 123 176 251 237 243 191 238 335 93 304 242 265 259 303 134 173 167 167 170 172 172 171 164 160 159 157 153 150 150 149 149 149 149 147 145 146 144 140 137 132 129 126 118 101 75
340 29 98 149 186 206 229 229 236 336 287 270 275 229 257 219 240 206 211 185 171 164 168 171 171 171 167 162 163 163 159 156 154 152 153 153 151 149 147 148 147 143 141 139 135 128 116 95 64
349 18 23 167 235 249 209 257 47 350 341 320 358 295 259 218 182 201 191 177 165 165 169 168 170 170 169 166 165 167 166 160 158 156 155 156 155 153 151 154 154 149 149 149 145 129 109 68 57
66 56 235 264 253 252 259 279 358 333 346 300 316 260 245 229 214 213 170 168 172 170 171 170 171 171 172 168 168 171 171 165 163 161 159 161 159 157 156 159 159 161 153 155 158 130 62 36 30
51 92 122 241 247 272 311 278 315 21 254 272 268 271 259 222 191 160 159 168 172 166 168 170 171 171 174 171 170 173 173 171 168 166 165 166 164 162 163 165 166 172 164 159 169 59 10 11 15
120 99 230 254 265 322 285 312 253 19 314 331 322 296 271 267 186 172 166 167 177 176 168 170 171 173 174 174 173 172 176 175 173 169 169 170 169 168 170 174 175 179 179 164 222 330 349 9 2
111 103 279 257 283 287 351 341 300 289 274 327 310 286 304 320 166 163 168 177 181 180 174 170 173 174 174 176 177 176 174 176 177 173 172 172 173 174 178 184 183 189 190 176 234 337 354 8 5
119 40 257 270 307 272 317 338 304 273 245 337 270 260 292 279 154 141 145 158 170 182 178 175 172 176 176 177 179 178 174 178 179 177 176 175 177 180 186 191 199 200 209 233 162 329 352 7 10
127 157 229 217 267 294 293 286 293 297 295 297 295 309 338 169 160 156 163 172 178 184 180 175 173 178 177 177 178 179 177 178 180 181 180 182 182 185 190 197 206 211 227 247 218 263 317 352 13
261 213 237 267 261 262 281 290 278 281 280 268 298 303 348 348 245 170 177 179 183 181 178 176 174 178 180 173 177 180 180 180 183 184 183 186 186 187 193 201 203 214 237 248 250 268 289 314 151
313 256 256 284 304 308 293 278 284 265 272 274 268 270 281 210 275 257 208 177 179 183 183 176 175 178 178 177 179 181 183 183 184 186 184 186 186 193 193 200 207 227 248 264 271 281 279 204 217
212 251 290 280 273 254 277 283 268 277 280 277 258 263 237 233 219 226 252 241 188 179 183 179 177 179 176 182 180 184 187 187 187 186 186 186 188 189 195 206 231 253 254 256 244 213 163 180 191
287 288 286 270 275 245 259 271 266 288 290 283 267 249 233 222 248 202 202 245 230 200 183 181 181 178 180 182 184 186 191 192 190 189 187 189 187 186 195 212 221 210 214 230 171 175 193 200 206
262 294 309 294 256 266 250 268 250 271 284 275 271 270 244 224 240 190 179 258 246 238 194 188 182 179 184 186 189 189 193 197 195 194 190 192 191 194 205 206 198 182 171 165 169 176 182 186 152
313 326 331 291 332 275 212 281 289 278 346 300 293 284 255 183 210 222 192 243 265 240 228 205 191 182 185 190 192 193 196 197 198 198 195 191 190 192 190 199 190 181 180 177 175 177 168 120 33
313 254 270 304 295 275 258 272 260 302 285 288 291 301 277 212 186 200 197 233 240 234 225 219 210 191 182 191 192 197 199 200 199 200 199 193 193 193 189 183 178 182 179 175 173 159 161 30 340
259 276 269 270 260 283 276 273 281 245 267 266 271 281 279 261 193 201 207 197 213 213 214 213 217 217 182 187 193 197 201 202 202 202 197 195 194 189 190 186 176 177 176 173 170 114 67 30 355
271 272 265 262 273 280 274 277 273 284 249 251 267 264 267 260 215 213 194 192 190 187 191 202 205 206 192 178 179 190 198 201 204 203 199 198 196 193 187 184 169 172 180 180 170 125 89 41 7
258 266 269 280 254 237 279 276 271 275 266 249 250 262 258 237 200 202 199 180 174 174 179 185 194 200 213 183 180 185 193 201 205 203 206 202 193 190 186 182 174 175 182 155 160 157 137 55 35
255 248 267 269 293 247 273 273 274 266 262 256 238 241 250 229 195 194 194 194 156 147 159 168 174 185 208 209 186 187 192 198 201 209 209 192 190 187 184 176 172 164 162 143 135 163 175 153 67
273 245 254 266 281 283 186 278 277 270 262 242 233 228 237 228 185 189 175 182 162 136 156 170 164 161 174 167 181 189 179 168 184 189 186 178 184 174 168 165 159 147 136 123 137 152 141 144 150
247 275 269 266 263 275 274 262 263 252 248 242 237 225 229 220 174 185 177 166 171 176 180 171 161 157 156 138 55 354 177 165 163 167 162 159 164 165 160 158 150 143 137 141 137 135 121 111 90
257 312 290 276 308 252 255 259 281 258 241 247 227 220 232 220 187 181 184 170 166 181 178 178 174 166 171 185 306 320 195 157 151 148 141 149 152 150 147 149 144 143 139 142 135 123 113 97 96
15 319 306 302 252 255 324 281 260 287 279 228 207 204 239 224 196 166 170 171 169 174 186 192 188 188 190 199 251 291 228 173 162 159 161 156 148 144 143 149 144 138 136 134 127 116 103 102 88
310 244 285 301 310 291 261 242 264 4 25 10 276 233 246 244 185 166 173 173 175 180 186 189 193 182 185 200 215 242 233 172 158 155 158 159 154 148 147 144 139 141 139 139 123 109 100 91 86
297 253 215 267 233 282 269 287 269 353 4 3 9 0 261 266 177 186 168 176 175 181 187 184 178 170 188 188 199 211 170 161 154 161 163 158 153 147 147 140 138 137 138 128 113 105 95 84 80
212 305 272 221 304 302 284 339 350 349 343 342 348 330 307 302 194 216 167 172 181 176 182 185 183 179 179 183 201 176 164 158 155 161 158 154 146 141 138 138 143 141 129 120 113 100 92 89 87
332 324 290 237 255 278 311 357 353 341 334 324 329 304 284 257 211 191 179 176 171 168 174 170 186 179 175 185 173 159 150 150 152 151 151 144 142 139 143 145 145 137 126 119 108 96 88 85 85
359 294 292 288 284 246 261 294 352 343 330 324 325 309 279 216 199 173 168 155 166 173 178 174 177 174 170 170 151 146 146 146 144 145 143 145 142 147 146 143 138 131 122 113 104 93 93 88 83